Flag for Kuwait Weather past 2 weeks in Kuwait City, Kuwait

Now
73 °F

Sunny.


Feels Like: 76 °F
Forecast: 56 / 74 °F
Wind: 8 mph from Southeast

Location: Kuwait International Airport

Current Time: Feb 28, 2015 at 5:48:29 PM

Latest Report: Feb 28, 2015 at 5:00 PM


Visibility: 10 mi

Pressure: 29.95 "Hg

Humidity: 23%

Dew point: 34 °F

Location of Kuwait CityLocation

Historic Weather in Kuwait City — Graph

°F

Kuwait City temperature yesterday

Maximum temperature yesterday: 77 °F (at 2:30 PM)
Minimum temperature yesterday: 55 °F (at 5:30 AM)
Average temperature yesterday: 65 °F

Past Weeks' High & Low Weather Summary

 TemperatureHumidityPressure
High77 °F (Feb 17, 1:30 PM)94% (Feb 19, 12:00 AM)30.21 "Hg (Feb 19, 12:00 AM)
Low37 °F (Feb 24, 6:30 AM)16% (Feb 14, 2:30 PM)29.59 "Hg (Feb 20, 1:30 PM)
Average61 °F47%30.01 "Hg
* Reported Feb 13 4:00 PM — Feb 28 4:30 PM, Kuwait City, Weather by CustomWeather, © 2015

Note: Actual official high and low records may vary slightly from our data, if they occured in-between our weather recording intervals... More about our weather records

Advertising

Kuwait City weather history for previous 24 hours

 ConditionsComfort  
Time TempWeatherWind HumidityBarometerVisibility
4:30 PM
Sat, Feb 28
75 °FSunny.6 mph21%29.95 "Hg10 mi
4:00 PM75 °FSunny.5 mph22%29.95 "Hg10 mi
3:30 PM75 °FSunny.6 mph22%29.95 "Hg10 mi
3:00 PM77 °FSunny.6 mph21%29.95 "Hg10 mi
2:30 PM77 °FSunny.5 mph22%29.98 "Hg10 mi
2:00 PM77 °FSunny.5 mph22%29.98 "Hg10 mi
1:00 PM77 °FSunny.5 mph19%30.01 "Hg10 mi
12:30 PM77 °FSunny.No wind19%30.01 "Hg10 mi
12:00 PM75 °FSunny.No wind21%30.04 "Hg10 mi
11:30 AM75 °FSunny.No wind24%30.04 "Hg10 mi
11:00 AM73 °FSunny.5 mph27%30.07 "Hg10 mi
10:30 AM72 °FSunny.No wind29%30.07 "Hg10 mi
10:00 AM70 °FSunny.No wind31%30.07 "Hg10 mi
9:30 AM66 °FSunny.5 mph32%30.07 "Hg10 mi
9:00 AM64 °FSunny.5 mph34%30.07 "Hg10 mi
8:30 AM61 °FSunny.No wind36%30.07 "Hg10 mi
8:00 AM57 °FSunny.5 mph41%30.07 "Hg10 mi
7:30 AM54 °FSunny.5 mph47%30.07 "Hg10 mi
7:00 AM48 °FSunny.3 mph54%30.07 "Hg10 mi
6:30 AM46 °FSunny.6 mph57%30.04 "Hg10 mi
6:00 AM46 °FClear.6 mph53%30.04 "Hg10 mi
5:30 AM46 °FClear.5 mph57%30.04 "Hg10 mi
5:00 AM48 °FClear.5 mph54%30.04 "Hg10 mi
4:30 AM48 °FClear.3 mph54%30.04 "Hg10 mi
4:00 AM48 °FClear.5 mph54%30.04 "Hg10 mi
3:00 AM50 °FClear.3 mph54%30.04 "Hg10 mi
2:30 AM52 °FClear.3 mph47%30.04 "Hg10 mi
2:00 AM54 °FClear.No wind51%30.04 "Hg10 mi
1:30 AM52 °FClear.3 mph50%30.04 "Hg10 mi
1:00 AM52 °FClear.3 mph47%30.04 "Hg10 mi
12:30 AM54 °FClear.3 mph47%30.04 "Hg10 mi
12:00 AM54 °FClear.3 mph44%30.04 "Hg10 mi
11:30 PM
Fri, Feb 27
55 °FClear.3 mph44%30.04 "Hg10 mi
11:00 PM55 °FClear.6 mph41%30.04 "Hg10 mi
10:00 PM57 °FClear.5 mph39%30.04 "Hg10 mi
9:30 PM59 °FClear.No wind34%30.04 "Hg10 mi
9:00 PM59 °FClear.No wind34%30.04 "Hg10 mi
8:30 PM64 °FClear.6 mph32%30.04 "Hg10 mi
8:00 PM66 °FClear.6 mph30%30.04 "Hg10 mi
7:30 PM68 °FClear.7 mph28%30.04 "Hg10 mi
7:00 PM70 °FClear.8 mph27%30.04 "Hg10 mi
6:30 PM70 °FClear.7 mph27%30.04 "Hg10 mi
6:00 PM72 °FClear.8 mph23%30.01 "Hg10 mi
5:30 PM73 °FSunny.9 mph20%30.01 "Hg10 mi
5:00 PM75 °FSunny.10 mph16%30.01 "Hg10 mi
Weather by CustomWeather, © 2015

See weather overviewHow to use our weather pages